Temp
47 38 35 42 47 48 46 42 41 46 54 51 52 55 59 61 62 62 63 65 65 66 63 68 71 72 72 72 73 72 67 66 67 69 70 68 68 69 71 71 73 74 72 73
39 36 44 48 48 47 47 41 41 48 54 51 51 52 58 60 61 63 64 63 65 64 61 66 70 70 71 71 72 70 69 66 67 68 69 70 69 71 71 72 73 73 73 72
37 42 50 47 44 43 44 43 42 42 50 54 50 47 52 59 63 65 65 66 66 64 62 63 66 67 70 70 69 68 68 66 66 67 68 69 69 69 69 70 71 71 72 73
40 47 46 46 42 44 36 47 49 47 44 35 49 33 47 55 59 63 65 62 65 65 65 63 64 64 66 68 69 69 68 65 64 66 67 67 67 68 68 69 70 71 72 72
38 41 40 37 40 47 41 49 47 48 41 38 43 36 42 52 53 59 64 67 62 65 66 64 64 65 67 68 67 67 66 65 65 67 67 67 67 68 69 69 70 69 69 69
41 49 47 45 49 49 49 45 44 44 43 31 39 39 38 45 55 61 64 64 63 64 64 66 65 67 66 67 65 66 66 66 65 66 68 67 67 68 67 67 67 67 67 67
42 42 48 51 43 45 41 36 25 27 27 27 42 39 43 51 57 62 64 61 63 64 63 61 65 67 68 65 65 65 66 65 67 67 67 67 65 67 67 65 67 66 65 64
30 31 42 50 44 39 37 37 26 23 25 29 44 36 44 59 63 62 64 63 63 62 63 61 65 67 71 71 68 69 68 67 67 68 67 66 67 68 66 66 67 65 63 63
29 33 45 45 51 46 38 35 41 32 37 29 36 46 53 57 59 59 62 62 64 65 60 61 65 66 68 67 69 70 68 66 66 64 63 63 65 66 65 64 63 62 61 64
37 29 43 45 48 48 41 47 34 34 23 26 34 42 42 47 54 56 56 59 60 60 58 61 65 64 64 67 67 66 65 63 62 61 60 60 60 60 59 58 57 56 58 60
39 35 35 42 40 39 40 36 36 38 32 27 32 35 47 46 48 51 50 55 56 54 60 64 64 66 67 67 65 63 61 60 59 60 59 60 60 59 57 56 57 59 58 56
40 34 26 33 45 47 47 40 38 29 29 32 31 33 49 48 49 49 51 53 53 60 64 65 67 65 64 62 61 59 58 58 58 59 59 59 60 59 57 56 55 55 53 53
39 34 25 31 36 44 39 41 41 40 37 33 28 35 53 53 55 57 54 56 60 63 65 64 63 61 59 58 58 57 57 56 58 59 55 55 56 55 55 54 52 52 52 50
44 34 32 27 32 35 34 40 42 39 34 36 35 42 48 52 51 56 56 60 62 62 62 59 58 58 58 58 58 57 57 58 58 57 55 52 52 53 51 52 50 50 51 49
39 32 34 35 37 39 38 39 42 39 42 38 40 43 46 49 54 56 59 59 58 57 57 57 56 56 56 57 57 58 58 57 56 55 52 51 51 53 51 49 49 49 49 48
34 31 35 33 38 39 36 39 41 44 45 45 42 43 49 51 54 54 55 55 54 54 54 55 55 56 55 56 56 56 56 55 54 52 50 52 50 49 48 47 46 46 45 45
32 31 31 30 38 36 32 39 41 44 49 45 38 45 49 49 51 52 52 53 52 52 53 54 55 55 54 54 55 53 54 54 52 51 52 50 49 47 47 47 45 44 43 44
32 32 33 31 34 26 42 50 48 47 46 46 44 46 49 47 49 51 53 51 51 52 52 52 52 53 52 54 53 53 52 51 51 49 48 48 47 46 45 44 43 41 42 43
38 34 32 30 32 39 43 45 45 44 41 45 45 46 46 46 47 45 52 53 51 51 51 51 51 51 51 50 51 49 48 48 48 47 47 47 46 45 44 42 40 39 40 41
41 38 35 34 32 29 42 48 52 49 37 47 46 44 44 46 38 41 48 51 50 50 50 50 50 49 49 49 49 47 45 45 44 45 44 44 43 41 39 39 38 38 38 38
32 33 33 34 33 38 45 50 54 38 36 47 47 47 47 44 44 46 49 49 50 49 49 50 48 46 46 48 47 44 44 42 44 44 43 42 40 38 37 36 36 35 35 36
31 29 30 33 33 32 46 48 43 44 45 44 44 44 43 44 45 46 47 47 47 46 47 48 45 44 46 47 46 43 41 43 43 42 40 38 37 40 37 35 35 35 34 34
30 32 28 33 33 41 46 45 48 48 44 44 43 44 44 44 44 45 44 45 46 46 46 46 45 45 46 46 45 41 41 42 41 39 37 37 37 36 35 34 33 35 33 33
35 37 34 36 36 38 42 46 47 47 44 45 45 44 44 42 43 44 44 45 45 45 44 46 46 45 43 45 45 43 43 42 40 38 36 36 35 35 35 35 33 33 32 33
33 34 33 36 39 41 40 43 44 44 45 44 44 44 43 43 43 44 44 44 44 44 45 46 44 42 42 44 44 45 45 42 38 36 36 35 34 33 33 32 32 32 32 32
33 32 33 30 38 37 38 43 45 43 43 44 44 43 44 45 44 45 44 45 45 44 44 42 43 43 43 44 44 43 43 41 38 36 35 34 33 32 33 33 34 40 39 40
MSLP
1006.34 1006.62 1006.19 1005.98 1006.33 1006.20 1006.05 1005.71 1005.14 1004.48 1003.48 1002.95 1001.75 1000.89 1000.28 1000.33 1000.38 1000.18 999.84 1000.21 1000.64 1000.93 1001.50 1001.26 1001.62 1002.00 1002.89 1003.93 1004.20 1004.54 1004.88 1005.51 1005.93 1006.15 1006.67 1007.29 1007.39 1007.59 1007.76 1008.01 1008.55 1008.52 1009.36 1009.17
1006.67 1005.74 1005.70 1005.95 1005.91 1005.95 1005.83 1005.59 1005.11 1004.50 1003.94 1003.08 1001.92 1000.76 1000.19 999.89 999.66 999.68 999.63 999.63 1000.24 1001.16 1002.10 1002.21 1002.30 1002.42 1002.69 1003.14 1003.82 1004.35 1004.85 1005.31 1005.51 1005.93 1006.19 1006.57 1006.77 1007.08 1007.56 1008.05 1008.48 1008.37 1008.83 1008.87
1006.10 1005.48 1005.30 1005.37 1005.39 1005.51 1005.37 1005.17 1005.01 1004.71 1004.28 1003.14 1002.43 1000.92 999.98 999.04 998.94 998.94 998.89 998.64 999.41 1000.44 1001.49 1002.30 1002.63 1002.73 1002.93 1003.40 1003.69 1003.95 1004.35 1004.90 1005.59 1006.11 1006.21 1006.50 1006.96 1007.41 1007.89 1007.84 1008.22 1008.83 1009.04 1008.84
1005.46 1005.10 1005.12 1004.83 1004.69 1004.87 1004.92 1005.00 1004.66 1004.67 1004.53 1003.94 1002.52 1001.27 999.70 999.02 998.35 998.50 998.36 998.67 998.90 999.73 1000.80 1001.57 1002.08 1002.79 1002.94 1002.84 1003.19 1003.64 1004.30 1004.88 1005.66 1005.98 1006.46 1006.64 1006.76 1007.36 1007.43 1007.49 1007.64 1008.19 1008.78 1009.53
1005.10 1004.68 1004.65 1004.85 1004.24 1004.78 1004.21 1004.95 1005.02 1004.85 1004.57 1004.49 1003.07 1002.79 999.76 998.66 998.22 997.55 997.32 997.78 998.79 998.91 999.75 1000.82 1001.69 1001.97 1002.06 1002.76 1003.09 1003.39 1003.91 1004.60 1005.41 1005.86 1006.24 1006.68 1007.22 1007.58 1007.65 1007.89 1008.23 1009.29 1009.13 1008.97
1004.80 1004.15 1003.96 1003.75 1003.72 1003.88 1004.25 1004.85 1005.21 1005.26 1005.14 1004.58 1002.97 1002.52 1000.02 998.43 997.01 996.22 996.47 997.52 998.30 998.57 999.05 999.89 1000.64 1001.23 1001.99 1002.58 1003.20 1003.50 1003.98 1004.39 1005.32 1005.94 1006.19 1006.85 1007.41 1007.82 1008.34 1009.01 1009.56 1009.61 1009.78 1010.07
1004.19 1003.62 1003.23 1003.24 1003.40 1003.41 1004.12 1004.85 1005.61 1005.56 1005.32 1004.03 1002.58 1002.07 999.45 997.38 996.40 995.91 996.17 996.93 997.76 998.12 998.79 999.79 1000.50 1001.43 1002.13 1002.37 1002.93 1003.39 1004.16 1005.17 1005.93 1006.31 1006.41 1006.87 1007.36 1007.90 1008.88 1010.19 1010.31 1010.69 1010.44 1012.23
1005.09 1003.46 1003.19 1002.39 1002.59 1003.05 1003.59 1004.29 1004.60 1004.28 1004.20 1003.47 1002.02 1000.36 997.86 996.26 996.01 995.99 996.06 996.42 997.05 997.64 998.24 998.99 999.80 1000.59 1001.27 1001.85 1002.37 1002.89 1004.55 1005.72 1006.41 1006.74 1006.81 1007.10 1007.48 1008.26 1008.96 1009.84 1009.02 1011.64 1012.91 1012.71
1005.92 1004.19 1003.38 1002.70 1002.11 1002.37 1003.20 1003.57 1003.62 1003.93 1003.32 1002.71 1001.29 999.16 997.12 996.23 996.22 996.04 996.08 996.57 996.65 997.22 998.04 998.72 999.64 1000.32 1001.04 1001.65 1002.43 1003.11 1004.67 1006.32 1006.79 1007.12 1007.68 1008.23 1008.29 1008.72 1009.67 1010.74 1011.61 1012.28 1012.33 1011.86
1006.23 1004.85 1002.71 1002.23 1002.26 1001.93 1002.18 1002.45 1003.63 1004.19 1003.30 1002.36 1000.73 998.73 997.14 996.33 996.14 996.38 996.42 996.59 996.91 997.21 997.95 998.87 999.50 1000.47 1001.54 1002.18 1002.92 1004.09 1005.25 1006.29 1007.26 1007.79 1008.45 1009.00 1009.88 1009.87 1010.57 1011.98 1012.50 1012.57 1012.31 1012.64
1006.20 1005.73 1003.60 1002.80 1001.81 1001.31 1001.97 1001.82 1002.51 1003.08 1003.06 1001.40 1000.48 998.74 997.09 996.89 996.88 996.87 997.06 996.94 997.07 997.54 998.02 999.05 999.96 1001.01 1001.69 1002.82 1003.74 1004.99 1005.76 1006.86 1008.08 1008.55 1009.44 1009.82 1010.49 1011.33 1012.46 1013.19 1013.44 1013.34 1013.63 1014.11
1006.10 1005.80 1004.44 1002.97 1001.80 1001.89 1001.51 1001.56 1001.82 1002.30 1002.39 1001.41 1000.14 998.96 997.65 997.11 997.02 997.08 997.12 996.93 997.33 997.34 998.27 999.20 1000.30 1001.47 1002.63 1003.90 1005.02 1005.82 1006.59 1007.30 1008.60 1009.30 1010.12 1010.62 1011.07 1011.59 1012.18 1012.94 1013.49 1014.03 1014.55 1014.74
1006.11 1005.67 1004.73 1003.03 1002.28 1001.76 1001.56 1001.24 1001.03 1001.24 1001.43 1000.97 1000.21 999.13 997.67 997.14 996.96 997.04 997.04 997.16 997.54 998.10 998.79 1000.06 1001.40 1002.55 1003.78 1004.95 1005.83 1006.82 1007.39 1008.37 1009.55 1010.18 1010.86 1011.82 1012.23 1012.72 1013.29 1013.75 1014.44 1014.77 1015.34 1015.76
1005.53 1005.16 1004.64 1003.65 1002.73 1002.35 1001.50 1000.90 1000.75 1000.68 1001.20 1000.65 1000.34 999.44 998.72 998.02 997.72 997.48 997.75 997.93 998.12 998.62 999.87 1001.33 1002.60 1003.69 1004.85 1005.64 1006.34 1007.56 1008.44 1009.43 1010.09 1011.13 1012.15 1013.01 1013.42 1013.82 1014.31 1014.58 1015.02 1015.55 1015.77 1015.96
1004.68 1004.66 1004.19 1003.16 1002.24 1002.04 1001.38 1000.81 1000.58 1000.16 1000.11 1000.49 1000.37 1000.01 999.78 999.24 998.84 998.58 998.76 999.04 999.69 1000.47 1001.32 1002.35 1003.17 1004.68 1005.63 1006.72 1007.63 1008.31 1009.46 1010.33 1011.19 1011.91 1013.17 1013.96 1014.58 1014.83 1015.24 1015.50 1015.95 1016.06 1016.29 1016.81
1005.33 1004.68 1003.76 1002.38 1001.32 1001.19 1000.84 1000.05 999.78 999.68 999.60 1000.02 1000.45 1000.49 1000.46 999.84 999.55 999.56 999.83 1000.56 1001.24 1001.96 1002.69 1003.47 1004.58 1005.82 1006.64 1007.92 1008.83 1009.81 1010.73 1011.61 1012.18 1013.12 1014.05 1014.81 1015.41 1015.72 1016.03 1016.35 1016.62 1016.77 1017.15 1017.53
1005.22 1004.70 1003.61 1001.81 1000.54 1000.83 1000.24 998.97 999.16 998.80 998.97 999.66 1000.60 1001.05 1001.41 1000.97 1000.52 1000.66 1001.40 1002.06 1002.76 1003.34 1003.78 1004.77 1005.95 1006.93 1007.89 1008.97 1009.72 1010.93 1011.74 1012.65 1013.41 1014.34 1015.05 1015.66 1016.25 1016.60 1016.81 1016.92 1017.07 1017.47 1017.91 1018.13
1004.36 1004.21 1003.17 1001.53 1000.77 999.74 997.52 997.49 998.39 998.48 999.38 999.88 1000.43 1001.97 1002.04 1002.67 1002.74 1002.58 1003.07 1003.44 1004.52 1005.04 1005.45 1006.41 1007.25 1008.29 1009.35 1010.16 1010.83 1011.94 1013.15 1014.06 1014.82 1015.40 1016.21 1016.82 1017.20 1017.31 1017.42 1017.70 1018.14 1018.43 1018.58 1018.80
1003.82 1003.37 1002.35 1001.24 999.93 998.69 997.92 997.96 998.24 998.36 1000.73 1000.99 1001.09 1001.77 1002.67 1003.90 1004.54 1005.08 1005.36 1005.46 1006.27 1006.54 1007.25 1007.82 1008.58 1009.46 1010.46 1011.34 1012.50 1013.14 1014.13 1015.00 1015.64 1016.62 1017.24 1017.76 1017.89 1018.11 1018.56 1018.92 1019.22 1019.43 1019.48 1019.55
1003.26 1003.10 1002.43 1001.34 1000.31 999.75 998.77 998.24 998.45 998.83 1000.91 1001.71 1001.48 1002.08 1003.26 1004.40 1005.48 1007.39 1007.26 1007.15 1007.66 1008.24 1008.92 1009.25 1009.82 1010.57 1011.82 1013.22 1013.65 1014.16 1015.36 1016.07 1017.14 1017.87 1018.30 1018.64 1019.01 1019.48 1019.81 1020.03 1020.20 1020.30 1020.32 1020.42
1004.29 1003.69 1002.94 1001.97 1001.27 1000.72 1000.46 999.57 999.22 999.94 1001.89 1002.22 1002.50 1003.27 1003.99 1005.68 1006.70 1007.87 1008.34 1008.11 1008.66 1009.53 1010.05 1010.59 1011.69 1012.56 1013.51 1014.20 1014.57 1015.46 1016.60 1017.66 1018.32 1018.73 1019.30 1019.74 1020.22 1020.58 1020.80 1020.92 1021.01 1021.08 1021.17 1021.19
1006.72 1005.92 1005.07 1003.76 1003.18 1002.85 1001.41 1000.81 1000.94 1002.20 1002.58 1003.31 1004.65 1004.96 1004.89 1007.15 1007.72 1008.36 1009.05 1009.31 1010.10 1011.03 1011.52 1012.24 1013.03 1014.18 1014.87 1015.29 1015.65 1017.03 1017.81 1018.68 1019.20 1019.78 1020.30 1020.84 1021.15 1021.34 1021.63 1021.64 1021.83 1021.83 1021.86 1021.85
1008.00 1008.34 1007.83 1006.45 1006.32 1005.21 1003.32 1002.17 1002.73 1003.37 1003.66 1004.78 1004.67 1005.91 1006.57 1008.12 1008.33 1009.20 1010.15 1010.81 1011.73 1012.11 1012.90 1013.86 1014.19 1015.20 1016.09 1016.70 1017.19 1018.00 1019.02 1019.53 1020.23 1020.75 1021.36 1021.80 1022.01 1022.22 1022.36 1022.34 1022.48 1022.55 1022.57 1022.63
1009.21 1008.76 1008.35 1007.57 1007.74 1006.62 1005.74 1004.87 1004.72 1004.77 1005.52 1006.40 1006.81 1007.52 1008.70 1009.38 1008.54 1010.42 1010.85 1012.05 1012.50 1013.44 1014.57 1015.01 1015.35 1016.42 1017.19 1017.82 1018.53 1019.03 1019.79 1020.50 1021.07 1021.63 1022.12 1022.54 1022.60 1022.79 1022.94 1022.98 1023.14 1023.14 1023.27 1023.41
1011.17 1010.20 1009.25 1008.82 1008.66 1008.44 1008.00 1007.42 1006.73 1006.89 1007.37 1007.91 1008.72 1009.28 1009.56 1009.83 1010.49 1011.09 1011.99 1013.03 1014.21 1015.10 1015.81 1016.01 1016.60 1017.45 1018.24 1018.83 1019.45 1019.95 1020.50 1021.04 1021.77 1022.28 1022.67 1023.04 1023.35 1023.56 1023.69 1023.68 1023.62 1023.74 1023.87 1023.87
1011.82 1011.33 1010.63 1010.48 1009.96 1009.37 1009.82 1009.32 1008.71 1008.51 1009.25 1009.72 1009.92 1010.94 1011.98 1011.79 1011.87 1012.60 1013.65 1014.52 1015.16 1015.78 1016.59 1017.33 1017.98 1018.42 1019.17 1019.71 1020.24 1020.75 1021.25 1021.54 1022.14 1022.81 1023.37 1023.66 1023.82 1023.98 1024.01 1024.10 1024.15 1023.98 1023.98 1023.98
Wind_Speed
5 4 10 18 13 13 12 10 7 4 8 6 19 19 15 6 7 10 10 9 7 6 9 6 11 15 14 13 15 15 11 8 7 5 6 6 5 3 3 4 6 6 5 5
2 11 9 6 6 11 15 11 13 12 11 7 10 14 10 10 10 10 11 10 9 8 8 13 11 14 17 20 16 12 10 7 7 4 3 3 4 3 3 3 4 7 6 7
15 5 12 10 11 13 13 17 14 15 13 15 7 8 9 9 9 8 11 9 9 13 14 14 18 16 15 16 16 15 14 10 5 3 4 4 5 4 2 4 3 3 2 2
7 7 12 11 13 14 13 9 13 13 9 7 5 7 8 10 14 13 12 9 9 10 11 17 18 16 16 18 15 15 12 10 6 7 5 4 4 7 3 3 3 5 6 5
6 5 10 17 21 11 13 8 8 10 7 4 11 1 8 6 11 14 18 15 9 11 14 18 18 20 19 15 16 15 11 9 8 7 7 4 3 2 2 2 5 6 6 9
12 6 5 14 15 18 6 4 4 9 5 7 12 7 5 5 15 19 12 9 12 11 10 12 17 18 16 12 9 10 12 9 8 7 7 7 5 4 4 4 6 10 6 5
4 12 6 6 7 5 5 11 4 6 7 5 9 7 13 7 7 10 14 8 11 10 10 11 17 15 14 15 13 10 9 5 6 5 4 5 5 2 10 10 3 3 6 3
5 2 2 11 8 7 8 9 5 6 7 8 9 9 10 23 17 6 5 10 10 10 9 12 18 18 18 17 17 15 9 10 9 8 7 4 5 4 5 8 8 5 6 4
4 5 6 8 5 10 6 11 9 2 2 3 5 7 6 9 8 6 9 9 14 13 9 11 14 15 17 15 13 13 15 13 11 11 10 10 9 12 10 9 8 5 3 8
3 8 5 5 9 10 5 9 8 2 6 6 6 18 9 3 9 7 5 9 9 9 10 10 14 14 11 12 13 14 16 17 14 14 11 12 14 14 15 10 8 7 9 12
6 4 4 0 4 8 5 6 3 5 3 5 10 7 1 3 2 6 4 8 10 9 14 15 15 15 16 15 14 14 17 18 16 15 13 14 15 15 12 10 8 10 10 10
3 3 5 8 7 6 11 6 5 6 5 4 2 5 5 6 6 2 6 7 8 17 18 18 19 18 17 15 14 13 15 18 15 15 14 14 14 14 13 13 12 11 11 11
3 3 5 6 5 1 4 6 5 4 3 4 2 4 6 4 4 4 6 14 17 21 22 19 18 18 17 16 15 14 15 16 14 16 15 13 14 13 13 13 11 11 11 10
13 6 6 5 2 1 4 4 7 6 4 3 1 4 7 4 6 9 10 14 19 21 21 19 17 17 17 17 18 17 17 14 15 16 15 14 13 13 12 12 11 10 9 10
2 5 8 14 14 11 9 9 6 12 7 4 5 2 5 6 5 11 12 15 16 19 20 20 20 17 20 19 18 18 16 15 15 17 15 13 12 12 11 11 10 9 10 9
1 3 3 8 17 13 11 11 9 6 11 7 6 2 3 5 4 13 14 17 17 19 20 22 21 22 21 19 19 17 16 16 15 15 14 12 11 11 11 10 9 10 9 8
3 2 2 3 13 11 7 15 10 6 11 10 5 5 5 4 6 16 17 17 18 19 21 22 21 19 18 18 19 18 17 15 15 14 13 12 10 11 9 9 10 10 8 7
3 3 2 1 9 3 3 16 9 9 8 8 9 9 10 14 11 16 17 21 18 19 21 20 19 19 18 18 19 18 15 15 15 14 12 10 9 10 10 10 9 8 6 7
7 3 3 2 1 2 8 10 12 14 4 5 10 16 21 20 17 18 13 18 17 19 17 18 18 19 18 18 16 17 16 15 15 13 11 9 9 10 9 9 8 6 6 6
1 7 3 1 3 4 3 10 11 4 3 6 13 20 24 19 11 6 11 18 19 18 17 18 19 19 19 14 15 18 15 15 13 10 10 10 10 9 9 8 7 5 5 6
7 5 6 5 5 5 8 14 9 1 4 11 12 16 18 11 10 16 14 18 20 17 19 19 17 16 15 14 16 17 15 13 11 11 11 10 9 9 7 7 5 5 6 6
6 7 5 5 6 5 16 9 4 7 13 17 14 16 25 21 19 18 17 20 20 19 19 18 18 15 13 14 16 15 14 10 11 11 11 10 8 7 7 8 7 7 6 7
4 3 4 7 5 11 8 8 13 14 19 17 22 20 21 19 20 21 18 20 17 19 16 14 17 16 13 13 13 14 11 11 11 11 10 9 9 8 7 8 7 7 7 7
6 5 2 1 10 16 14 13 15 18 19 17 20 21 16 16 23 19 19 16 17 16 14 14 17 16 14 12 12 12 12 11 11 11 9 7 8 9 8 7 6 6 6 5
3 9 8 3 5 7 16 11 16 20 20 21 19 21 16 15 17 20 18 18 15 14 12 13 14 13 13 11 11 10 11 11 10 9 9 8 6 6 6 5 4 4 3 3
5 4 4 3 7 10 7 9 16 22 20 20 22 20 15 14 18 18 16 14 14 14 13 12 12 13 11 11 10 9 9 10 10 9 6 5 5 4 4 4 4 5 5 6
Wind_Direction
223 170 208 210 218 238 264 273 287 323 251 245 229 251 244 227 220 224 231 213 203 192 167 160 153 153 154 170 170 178 171 165 160 155 154 178 185 158 149 161 218 183 214 176
294 228 223 219 213 243 254 255 269 288 287 264 270 251 240 210 215 211 219 230 207 136 137 158 164 162 169 171 178 177 185 184 187 176 148 148 151 118 138 157 213 217 204 187
229 218 215 210 214 229 242 249 241 253 287 291 293 279 235 240 212 200 220 209 190 160 157 167 168 178 172 175 181 186 190 194 175 141 102 80 74 64 147 168 156 79 227 112
233 216 223 235 234 209 229 244 241 234 231 243 162 284 224 221 236 220 232 212 197 162 158 171 173 175 180 189 190 194 186 188 150 141 129 140 154 173 200 150 102 114 107 50
224 229 213 209 246 228 224 210 254 262 258 336 272 310 267 191 223 225 220 212 185 194 165 167 175 180 189 180 188 193 191 197 140 145 150 133 119 37 8 3 116 59 70 51
248 264 186 210 220 212 145 166 259 232 261 241 235 186 266 205 207 224 225 181 179 193 198 157 177 174 182 186 189 190 189 191 132 147 159 165 144 121 55 355 59 64 50 20
265 225 203 185 193 171 121 155 199 182 214 227 199 204 244 241 226 214 215 179 178 192 180 139 155 169 174 176 183 186 182 139 122 169 171 182 210 97 94 47 38 3 67 205
328 288 278 180 177 180 173 179 167 176 172 212 194 211 239 234 252 262 268 174 181 187 181 160 155 162 171 175 180 178 142 108 117 130 114 101 117 123 107 126 104 122 161 138
325 272 172 294 234 164 182 191 189 130 236 113 188 257 303 234 253 223 217 181 193 190 168 152 151 154 161 165 166 142 119 120 113 100 91 76 87 101 97 76 84 108 116 81
282 284 240 257 230 231 173 157 173 209 176 182 183 220 219 190 205 241 253 202 187 178 140 143 140 133 126 125 114 109 110 104 104 94 91 89 88 87 88 89 88 80 68 73
246 244 285 154 223 172 170 179 161 130 242 189 174 233 255 184 303 264 286 210 176 134 131 131 124 125 122 117 106 108 101 101 98 95 94 98 91 92 101 105 98 79 77 79
244 237 269 233 274 356 236 173 159 134 217 238 182 257 288 260 241 251 262 189 145 136 131 127 124 120 111 104 105 106 107 96 98 98 101 91 93 87 82 79 74 74 78 72
194 222 298 294 60 280 195 197 176 125 106 232 102 289 330 104 85 71 134 137 130 129 122 118 116 115 114 110 100 96 94 94 99 94 87 82 87 87 85 82 78 76 83 80
225 203 212 244 338 179 276 207 171 132 123 242 89 343 360 46 96 93 113 121 129 125 118 112 111 110 109 105 104 99 91 94 93 89 88 85 83 83 82 80 76 79 81 77
148 231 207 244 260 268 272 265 217 188 155 183 186 82 336 14 94 113 120 113 110 114 113 113 111 109 105 102 100 98 94 90 93 89 85 84 85 85 84 79 76 75 74 74
344 255 236 258 237 233 233 248 261 222 161 113 118 80 305 7 305 101 104 112 109 110 112 107 108 108 104 106 102 98 97 91 91 88 87 88 81 82 79 80 78 73 72 76
213 243 250 284 141 166 228 217 200 176 143 136 153 174 69 8 125 111 109 103 107 106 106 105 105 104 105 104 103 99 96 96 89 90 87 81 81 80 77 74 68 62 63 74
198 203 227 266 150 199 260 153 174 151 89 99 104 120 84 82 67 96 105 108 107 107 103 102 102 100 98 100 93 96 93 93 94 86 83 81 85 83 72 68 64 58 57 70
190 239 257 209 331 89 79 131 146 145 103 102 118 103 95 96 83 56 81 99 104 101 101 99 100 98 94 89 97 94 88 87 85 84 83 81 76 73 69 70 62 48 56 54
240 234 292 358 66 82 333 94 95 57 116 138 124 127 134 134 98 105 102 107 98 96 99 98 93 90 89 92 95 92 89 86 83 77 73 69 66 69 66 61 60 50 52 50
341 351 353 5 72 67 14 339 344 127 192 140 150 151 137 114 119 125 118 101 96 97 97 94 86 89 93 96 93 88 88 84 87 83 80 74 70 69 66 68 53 57 57 56
347 324 347 356 25 37 342 338 41 116 98 111 110 109 99 111 118 114 111 102 99 97 92 89 91 84 84 89 93 93 88 88 84 82 77 69 61 69 63 71 58 54 54 57
15 18 307 4 17 323 17 69 74 108 104 107 101 94 103 114 120 107 106 96 94 93 91 94 97 91 81 86 91 98 95 94 91 84 77 75 74 68 58 64 56 61 51 52
340 1 317 242 12 20 31 64 83 91 94 96 96 97 91 112 99 106 97 98 91 87 95 100 95 92 87 88 96 98 102 98 96 94 86 80 80 76 68 67 55 64 49 52
319 314 325 54 34 29 23 54 91 89 92 90 86 95 99 100 94 101 95 94 96 98 96 93 94 91 88 93 98 105 105 104 100 95 90 84 79 75 73 64 68 63 55 73
341 329 358 356 355 87 53 68 92 91 92 92 97 95 90 89 94 93 94 98 98 94 91 90 93 91 90 91 94 100 109 109 107 101 98 95 92 78 65 62 59 59 71 46